Regional Weather Roundup
Issued by NWS

Home | Current Version | Previous Version | Text Only | Print | Product List | Glossary Off
Versions: 1 2 3 4 5 6 7 8 9 10 11 12 13 14 15 16 17 18 19 20 21 22 23 24 25 26 27

000
ASUS45 KCYS 231310
RWRWY

WYOMING REGIONAL WEATHER ROUNDUP
NATIONAL WEATHER SERVICE CHEYENNE WY
700 AM MDT WED APR 23 2014

NOTE:  "FAIR" INDICATES FEW OR NO CLOUDS BELOW 12,000 FEET
WITH NO SIGNIFICANT WEATHER AND/OR OBSTRUCTIONS TO VISIBILITY.

WYZ001-231400-
YELLOWSTONE NATIONAL PARK

CITY           SKY/WX    TMP DP  RH WIND       PRES   REMARKS
LK YELLOWSTONE   N/A     25  21  85 W6        29.73R WCI  18
W YELLOWSTONE  NOT AVBL

$$
WYZ002>013-054>058-071-098>099-231400-
NORTHERN WYOMING

CITY           SKY/WX    TMP DP  RH WIND       PRES   REMARKS
JACKSON        CLOUDY    30  23  74 MISG      29.78R
CODY           MOCLDY    43  27  52 NW9G20    29.57R
GREYBULL       CLOUDY    50  31  48 NW16      29.53R
WORLAND        CLEAR     49  28  44 W6        29.56R
SHERIDAN         N/A     36  25  64 CALM        N/A
BUFFALO        PTCLDY    42  35  76 NW14      29.54R
GILLETTE       CLOUDY    51  35  54 W14       29.50R
HULETT         CLOUDY    55  37  50 W16G24    29.49
NEWCASTLE      FAIR      54  36  50 SE3       29.55

$$
WYZ014>020-022>026-101>103-231400-
CENTRAL WYOMING

CITY           SKY/WX    TMP DP  RH WIND       PRES   REMARKS
BIG PINEY      PTCLDY    24  17  74 E3        29.82R
PINEDALE       PTSUNNY   28  21  74 W9        29.82R WCI  20
DUBOIS         FAIR      30  14  51 NW15G22   29.68R WCI  19
LANDER         PTCLDY    38  27  64 SW8       29.67R WCI  32
RIVERTON       CLEAR     39  22  50 W16       29.66R WCI  30
CASPER         PTCLDY    43  27  53 SW21      29.64R
DOUGLAS        CLOUDY    50  26  39 W18       29.64R

$$
WYZ021-027>030-104>119-231400-
SOUTHERN WYOMING

CITY           SKY/WX    TMP DP  RH WIND       PRES   REMARKS
EVANSTON       PTCLDY    26  21  81 SW18      29.89R WCI  13
FORT BRIDGER   PTSUNNY   27  26  94 SW6       29.90R WCI  21
ROCK SPRINGS   MOCLDY    32  26  78 SW18      29.84R WCI  20
DIXON          CLOUDY    36  33  90 E6        29.87S WCI  31
RAWLINS        PTCLDY    34  28  79 SW15      29.79R WCI  24
SARATOGA       CLOUDY    34  32  93 S7        29.82F WCI  28
LARAMIE        CLOUDY    38  29  70 NE6       29.74R WCI  33
CHEYENNE       PTCLDY    45  32  60 NW23G33   29.65R
TORRINGTON     CLOUDY    55  39  54 W22G31    29.56R
PINE BLUFFS    FAIR      46  37  71 NW15      29.62R

$$



USA.gov is the U.S. government's official web portal to all federal, state and local government web resources and services.